| time (UTC) | temp F | wind direction | speed MPH | gust MPH | rain 1hr in | rain 24hr in | rain mn in | humidity % | barometer mb |
| 20260906011412 | 72 | 24 | 2.0 | 5.0 | 0.00 | 0.15 | 0.00 | 92 | 1021.7 |
| 20260906011225 | 72 | 24 | 3.0 | 5.0 | 0.00 | 0.15 | 0.00 | 92 | 1021.6 |
| 20260906010411 | 72 | 24 | 4.0 | 5.0 | 0.00 | 0.15 | 0.00 | 92 | 1021.5 |
| 20260906005910 | 72 | 24 | 2.0 | 4.0 | 0.00 | 0.15 | 0.00 | 91 | 1021.5 |
| 20260906005410 | 72 | 24 | 2.0 | 7.0 | 0.00 | 0.15 | 0.00 | 92 | 1021.5 |
| 20260906004906 | 72 | 24 | 4.0 | 7.0 | 0.00 | 0.15 | 0.00 | 92 | 1021.4 |
| 20260906004406 | 72 | 21 | 6.0 | 9.0 | 0.00 | 0.15 | 0.00 | 91 | 1021.3 |
| 20260906003906 | 72 | 30 | 6.0 | 9.0 | 0.00 | 0.15 | 0.00 | 91 | 1021.4 |
| 20260906003406 | 71 | 14 | 6.0 | 9.0 | 0.00 | 0.15 | 0.00 | 91 | 1021.4 |
| 20260906002905 | 71 | 30 | 6.0 | 7.0 | 0.00 | 0.15 | 0.00 | 91 | 1021.3 |
| 20260906002505 | 71 | 30 | 6.0 | 7.0 | 0.00 | 0.15 | 0.00 | 91 | 1021.3 |
| 20260906001741 | 71 | 17 | 4.0 | 6.0 | 0.00 | 0.15 | 0.00 | 90 | 1021.4 |
| 20260906000856 | 71 | 21 | 5.0 | 9.0 | 0.00 | 0.15 | 0.00 | 90 | 1021.3 |
| 20260906000351 | 71 | 23 | 6.0 | 9.0 | 0.00 | 0.15 | 0.00 | 91 | 1021.4 |
| 20260905235850 | 71 | 7 | 6.0 | 9.0 | 0.00 | 0.15 | 0.15 | 91 | 1021.3 |
| 20260905235704 | 71 | 14 | 6.0 | 9.0 | 0.00 | 0.15 | 0.15 | 91 | 1021.4 |
| 20260905234849 | 71 | 8 | 6.0 | 7.0 | 0.00 | 0.15 | 0.15 | 91 | 1021.3 |
| 20260905234701 | 71 | 30 | 3.0 | 6.0 | 0.00 | 0.15 | 0.15 | 91 | 1021.4 |
| 20260905233841 | 71 | 34 | 5.0 | 6.0 | 0.00 | 0.15 | 0.15 | 91 | 1021.2 |
| 20260905233714 | 71 | 30 | 5.0 | 7.0 | 0.00 | 0.15 | 0.15 | 91 | 1021.2 |
| 20260905232839 | 71 | 23 | 5.0 | 7.0 | 0.00 | 0.15 | 0.15 | 91 | 1021.3 |
| 20260905232641 | 71 | 30 | 5.0 | 7.0 | 0.00 | 0.15 | 0.15 | 91 | 1021.3 |
| 20260905232253 | 71 | 33 | 5.0 | 6.0 | 0.00 | 0.15 | 0.15 | 91 | 1021.3 |
| 20260905230833 | 71 | 30 | 5.0 | 10.0 | 0.00 | 0.15 | 0.15 | 90 | 1021.3 |
| 20260905230333 | 71 | 15 | 7.0 | 10.0 | 0.00 | 0.15 | 0.15 | 90 | 1021.2 |
| 20260905230207 | 71 | 21 | 7.0 | 10.0 | 0.00 | 0.15 | 0.15 | 90 | 1021.3 |
| 20260905225332 | 71 | 28 | 5.0 | 6.0 | 0.00 | 0.15 | 0.15 | 90 | 1021.3 |
| 20260905224832 | 72 | 33 | 4.0 | 6.0 | 0.00 | 0.15 | 0.15 | 90 | 1021.3 |
| 20260905224332 | 72 | 30 | 5.0 | 5.0 | 0.00 | 0.15 | 0.15 | 90 | 1021.3 |
| 20260905223832 | 72 | 34 | 4.0 | 5.0 | 0.00 | 0.15 | 0.15 | 91 | 1021.4 |
| 20260905223334 | 71 | 37 | 4.0 | 9.0 | 0.00 | 0.15 | 0.15 | 91 | 1021.3 |
| 20260905222833 | 71 | 43 | 4.0 | 9.0 | 0.00 | 0.15 | 0.15 | 91 | 1021.5 |
| 20260905222330 | 71 | 53 | 4.0 | 6.0 | 0.00 | 0.15 | 0.15 | 91 | 1021.5 |
| 20260905221829 | 71 | 40 | 3.0 | 4.0 | 0.00 | 0.15 | 0.15 | 91 | 1021.4 |
| 20260905221319 | 71 | 81 | 2.0 | 4.0 | 0.00 | 0.15 | 0.15 | 91 | 1021.4 |
| 20260905220822 | 71 | 58 | 2.0 | 6.0 | 0.00 | 0.15 | 0.15 | 91 | 1021.4 |
| 20260905220320 | 72 | 58 | 2.0 | 9.0 | 0.00 | 0.15 | 0.15 | 91 | 1021.3 |
| 20260905215816 | 72 | 23 | 5.0 | 9.0 | 0.00 | 0.15 | 0.15 | 90 | 1021.2 |
| 20260905215307 | 72 | 30 | 6.0 | 9.0 | 0.00 | 0.15 | 0.15 | 90 | 1021.1 |
| 20260905215118 | 72 | 25 | 6.0 | 9.0 | 0.00 | 0.15 | 0.15 | 91 | 1021.2 |
| 20260905214306 | 72 | 15 | 4.0 | 7.0 | 0.00 | 0.15 | 0.15 | 91 | 1021.1 |
| 20260905213805 | 72 | 53 | 5.0 | 7.0 | 0.00 | 0.15 | 0.15 | 91 | 1021.2 |
| 20260905213304 | 71 | 46 | 2.0 | 7.0 | 0.00 | 0.15 | 0.15 | 91 | 1021.2 |
| 20260905212903 | 71 | 57 | 5.0 | 10.0 | 0.00 | 0.15 | 0.15 | 91 | 1021.1 |
| 20260905211805 | 71 | 77 | 4.0 | 9.0 | 0.00 | 0.15 | 0.15 | 91 | 1020.9 |
| 20260905211301 | 72 | 79 | 6.0 | 9.0 | 0.00 | 0.15 | 0.15 | 91 | 1020.8 |
| 20260905210758 | 72 | 64 | 5.0 | 7.0 | 0.00 | 0.15 | 0.15 | 91 | 1020.7 |
| 20260905210300 | 72 | 92 | 3.0 | 7.0 | 0.00 | 0.15 | 0.15 | 91 | 1020.7 |
| 20260905205758 | 72 | 74 | 4.0 | 7.0 | 0.00 | 0.15 | 0.15 | 91 | 1020.7 |
| 20260905205256 | 72 | 77 | 4.0 | 5.0 | 0.00 | 0.15 | 0.15 | 91 | 1020.6 |
| 20260905204755 | 72 | 72 | 2.0 | 4.0 | 0.00 | 0.15 | 0.15 | 91 | 1020.4 |
| 20260905204255 | 72 | 54 | 2.0 | 7.0 | 0.00 | 0.15 | 0.15 | 91 | 1020.3 |
| 20260905203756 | 72 | 41 | 3.0 | 7.0 | 0.00 | 0.15 | 0.15 | 91 | 1020.3 |
| 20260905203251 | 72 | 54 | 4.0 | 7.0 | 0.00 | 0.15 | 0.15 | 91 | 1020.3 |
| 20260905202743 | 72 | 30 | 5.0 | 7.0 | 0.00 | 0.15 | 0.15 | 91 | 1020.3 |
| 20260905202241 | 72 | 46 | 5.0 | 7.0 | 0.00 | 0.15 | 0.15 | 91 | 1020.2 |
| 20260905201741 | 72 | 61 | 4.0 | 9.0 | 0.00 | 0.15 | 0.15 | 91 | 1020.2 |
| 20260905201612 | 72 | 78 | 6.0 | 9.0 | 0.00 | 0.15 | 0.15 | 91 | 1020.1 |
| 20260905200735 | 72 | 64 | 6.0 | 9.0 | 0.00 | 0.15 | 0.15 | 91 | 1020.1 |
| 20260905200233 | 72 | 67 | 5.0 | 9.0 | 0.00 | 0.15 | 0.15 | 91 | 1020.1 |
| 20260905195732 | 72 | 46 | 3.0 | 11.0 | 0.00 | 0.15 | 0.15 | 91 | 1020.1 |
| 20260905195234 | 72 | 48 | 7.0 | 11.0 | 0.00 | 0.15 | 0.15 | 90 | 1019.9 |
| 20260905194733 | 73 | 46 | 3.0 | 9.0 | 0.00 | 0.15 | 0.15 | 91 | 1019.8 |
| 20260905194232 | 73 | 68 | 5.0 | 9.0 | 0.00 | 0.15 | 0.15 | 90 | 1019.9 |
| 20260905193734 | 73 | 69 | 5.0 | 7.0 | 0.00 | 0.15 | 0.15 | 90 | 1019.8 |
| 20260905193233 | 73 | 75 | 4.0 | 9.0 | 0.00 | 0.15 | 0.15 | 91 | 1019.6 |
| 20260905192732 | 73 | 91 | 5.0 | 10.0 | 0.00 | 0.15 | 0.15 | 91 | 1019.6 |
| 20260905192548 | 73 | 81 | 6.0 | 13.0 | 0.00 | 0.15 | 0.15 | 91 | 1019.5 |
| 20260905191731 | 73 | 77 | 9.0 | 13.0 | 0.00 | 0.15 | 0.15 | 90 | 1019.5 |
| 20260905191557 | 73 | 78 | 6.0 | 10.0 | 0.00 | 0.15 | 0.15 | 90 | 1019.5 |
| 20260905190731 | 73 | 86 | 7.0 | 10.0 | 0.00 | 0.15 | 0.15 | 90 | 1019.4 |
| 20260905190233 | 74 | 82 | 9.0 | 10.0 | 0.00 | 0.15 | 0.15 | 90 | 1019.5 |
| 20260905185731 | 74 | 86 | 6.0 | 10.0 | 0.00 | 0.15 | 0.15 | 90 | 1019.4 |
| 20260905185230 | 74 | 91 | 6.0 | 10.0 | 0.00 | 0.15 | 0.15 | 89 | 1019.4 |
| 20260905184728 | 74 | 82 | 6.0 | 11.0 | 0.00 | 0.15 | 0.15 | 89 | 1019.3 |
| 20260905184219 | 74 | 65 | 6.0 | 11.0 | 0.00 | 0.15 | 0.15 | 89 | 1019.2 |
| 20260905183720 | 74 | 82 | 7.0 | 11.0 | 0.00 | 0.15 | 0.15 | 89 | 1019.2 |
| 20260905183217 | 74 | 92 | 7.0 | 9.0 | 0.00 | 0.15 | 0.15 | 89 | 1019.2 |
| 20260905183035 | 74 | 96 | 6.0 | 10.0 | 0.00 | 0.15 | 0.15 | 89 | 1019.1 |
| 20260905182211 | 75 | 68 | 7.0 | 10.0 | 0.00 | 0.15 | 0.15 | 89 | 1019.1 |
| 20260905181711 | 75 | 68 | 7.0 | 10.0 | 0.00 | 0.15 | 0.15 | 89 | 1019.1 |
| 20260905181212 | 75 | 91 | 7.0 | 12.0 | 0.00 | 0.15 | 0.15 | 89 | 1019.1 |
| 20260905180708 | 75 | 57 | 7.0 | 12.0 | 0.00 | 0.15 | 0.15 | 89 | 1018.9 |
| 20260905180208 | 75 | 79 | 5.0 | 10.0 | 0.00 | 0.15 | 0.15 | 90 | 1018.9 |
| 20260905175802 | 75 | 89 | 8.0 | 10.0 | 0.00 | 0.15 | 0.15 | 89 | 1018.9 |
| 20260905174705 | 75 | 74 | 6.0 | 10.0 | 0.00 | 0.15 | 0.15 | 90 | 1018.8 |
| 20260905174204 | 75 | 101 | 4.0 | 9.0 | 0.00 | 0.15 | 0.15 | 90 | 1018.9 |
| 20260905173703 | 75 | 102 | 6.0 | 10.0 | 0.00 | 0.15 | 0.15 | 90 | 1018.8 |
| 20260905173203 | 75 | 139 | 6.0 | 10.0 | 0.00 | 0.15 | 0.15 | 90 | 1018.9 |
| 20260905173017 | 75 | 109 | 6.0 | 11.0 | 0.00 | 0.15 | 0.15 | 91 | 1018.9 |
| 20260905172203 | 75 | 134 | 8.0 | 11.0 | 0.00 | 0.15 | 0.15 | 90 | 1018.9 |
| 20260905171719 | 75 | 115 | 7.0 | 10.0 | 0.00 | 0.15 | 0.15 | 90 | 1018.8 |
| 20260905171202 | 75 | 85 | 6.0 | 10.0 | 0.00 | 0.15 | 0.15 | 91 | 1018.7 |
| 20260905171020 | 75 | 113 | 7.0 | 10.0 | 0.00 | 0.15 | 0.15 | 91 | 1018.8 |
| 20260905170203 | 75 | 96 | 5.0 | 9.0 | 0.00 | 0.15 | 0.15 | 91 | 1018.8 |
| 20260905165703 | 75 | 129 | 5.0 | 9.0 | 0.00 | 0.15 | 0.15 | 91 | 1018.8 |
| 20260905165202 | 75 | 112 | 7.0 | 10.0 | 0.00 | 0.15 | 0.15 | 91 | 1018.7 |
| 20260905164807 | 75 | 137 | 4.0 | 11.0 | 0.00 | 0.15 | 0.15 | 91 | 1018.7 |
| 20260905163703 | 75 | 110 | 7.0 | 11.0 | 0.00 | 0.15 | 0.15 | 92 | 1018.7 |
| 20260905163159 | 75 | 98 | 6.0 | 11.0 | 0.00 | 0.15 | 0.15 | 92 | 1018.7 |
| 20260905162701 | 76 | 124 | 8.0 | 10.0 | 0.00 | 0.15 | 0.15 | 92 | 1018.7 |
| 20260905162159 | 76 | 134 | 5.0 | 6.0 | 0.00 | 0.15 | 0.15 | 92 | 1018.7 |
| 20260905161658 | 76 | 187 | 2.0 | 7.0 | 0.00 | 0.15 | 0.15 | 92 | 1018.7 |
| 20260905161159 | 75 | 220 | 5.0 | 7.0 | 0.00 | 0.15 | 0.15 | 91 | 1018.7 |
| 20260905160655 | 76 | 192 | 2.0 | 7.0 | 0.00 | 0.15 | 0.15 | 91 | 1018.6 |
| 20260905160155 | 76 | 210 | 2.0 | 10.0 | 0.00 | 0.15 | 0.15 | 91 | 1018.7 |
| 20260905155655 | 76 | 187 | 6.0 | 10.0 | 0.00 | 0.15 | 0.15 | 90 | 1018.8 |
| 20260905155500 | 76 | 208 | 4.0 | 7.0 | 0.00 | 0.15 | 0.15 | 91 | 1018.7 |
| 20260905154646 | 76 | 216 | 5.0 | 9.0 | 0.00 | 0.15 | 0.15 | 91 | 1018.7 |
| 20260905154143 | 76 | 216 | 4.0 | 9.0 | 0.00 | 0.15 | 0.15 | 91 | 1018.7 |
| 20260905153640 | 76 | 242 | 5.0 | 7.0 | 0.00 | 0.15 | 0.15 | 91 | 1018.7 |
| 20260905153239 | 76 | 244 | 4.0 | 10.0 | 0.00 | 0.15 | 0.15 | 91 | 1018.7 |
| 20260905152234 | 76 | 219 | 7.0 | 10.0 | 0.00 | 0.15 | 0.15 | 91 | 1018.7 |
| 20260905151134 | 76 | 250 | 6.0 | 10.0 | 0.00 | 0.15 | 0.15 | 92 | 1018.7 |
| 20260905150949 | 76 | 229 | 6.0 | 9.0 | 0.00 | 0.15 | 0.15 | 92 | 1018.7 |
| 20260905150131 | 76 | 249 | 6.0 | 10.0 | 0.00 | 0.15 | 0.15 | 93 | 1018.7 |
| 20260905145634 | 75 | 263 | 6.0 | 10.0 | 0.00 | 0.15 | 0.15 | 93 | 1018.6 |
| 20260905145443 | 75 | 203 | 6.0 | 9.0 | 0.00 | 0.15 | 0.15 | 94 | 1018.7 |
| 20260905144632 | 75 | 249 | 5.0 | 9.0 | 0.00 | 0.15 | 0.15 | 94 | 1018.7 |
| 20260905144131 | 75 | 229 | 4.0 | 9.0 | 0.00 | 0.15 | 0.15 | 95 | 1018.7 |
| 20260905143944 | 75 | 203 | 5.0 | 12.0 | 0.00 | 0.15 | 0.15 | 95 | 1018.7 |
| 20260905143446 | 75 | 247 | 7.0 | 13.0 | 0.00 | 0.15 | 0.15 | 94 | 1018.6 |
| 20260905142631 | 75 | 253 | 8.0 | 13.0 | 0.00 | 0.15 | 0.15 | 94 | 1018.7 |
| 20260905142131 | 75 | 243 | 9.0 | 13.0 | 0.00 | 0.15 | 0.15 | 94 | 1018.6 |
| 20260905141631 | 75 | 254 | 8.0 | 14.0 | 0.00 | 0.15 | 0.15 | 94 | 1018.5 |
| 20260905141133 | 75 | 253 | 11.0 | 15.0 | 0.00 | 0.15 | 0.15 | 94 | 1018.5 |
| 20260905140631 | 76 | 261 | 11.0 | 17.0 | 0.00 | 0.15 | 0.15 | 95 | 1018.5 |
| 20260905140445 | 75 | 256 | 11.0 | 17.0 | 0.01 | 0.15 | 0.15 | 95 | 1018.4 |
| 20260905135632 | 74 | 244 | 11.0 | 16.0 | 0.01 | 0.14 | 0.15 | 95 | 1018.5 |
| 20260905135131 | 74 | 254 | 11.0 | 17.0 | 0.01 | 0.14 | 0.15 | 95 | 1018.6 |
| 20260905134632 | 74 | 257 | 12.0 | 17.0 | 0.01 | 0.14 | 0.15 | 95 | 1018.5 |
| 20260905134134 | 74 | 261 | 9.0 | 17.0 | 0.01 | 0.14 | 0.15 | 95 | 1018.4 |
| 20260905133632 | 74 | 281 | 11.0 | 16.0 | 0.01 | 0.14 | 0.15 | 95 | 1018.4 |
| 20260905133132 | 74 | 264 | 11.0 | 16.0 | 0.02 | 0.14 | 0.15 | 95 | 1018.3 |
| 20260905132632 | 74 | 257 | 11.0 | 18.0 | 0.15 | 0.14 | 0.15 | 95 | 1018.4 |
| 20260905132132 | 74 | 258 | 11.0 | 18.0 | 0.15 | 0.14 | 0.15 | 95 | 1018.4 |
| 20260905131633 | 74 | 267 | 13.0 | 18.0 | 0.15 | 0.14 | 0.15 | 95 | 1018.5 |
| 20260905131509 | 74 | 230 | 11.0 | 17.0 | 0.15 | 0.14 | 0.15 | 96 | 1018.4 |
| 20260905130632 | 74 | 274 | 12.0 | 17.0 | 0.15 | 0.14 | 0.15 | 96 | 1018.4 |
| 20260905130133 | 74 | 282 | 9.0 | 13.0 | 0.14 | 0.14 | 0.14 | 96 | 1018.5 |
| 20260905125633 | 74 | 260 | 8.0 | 13.0 | 0.14 | 0.00 | 0.14 | 96 | 1018.4 |
| 20260905125134 | 74 | 267 | 8.0 | 16.0 | 0.14 | 0.00 | 0.14 | 96 | 1018.3 |
| 20260905124632 | 74 | 257 | 10.0 | 16.0 | 0.14 | 0.00 | 0.14 | 95 | 1018.4 |
| 20260905124131 | 73 | 227 | 9.0 | 17.0 | 0.14 | 0.00 | 0.14 | 95 | 1018.4 |
| 20260905123633 | 73 | 280 | 10.0 | 28.0 | 0.14 | 0.00 | 0.14 | 94 | 1018.5 |
| 20260905123133 | 73 | 274 | 16.0 | 28.0 | 0.13 | 0.00 | 0.13 | 92 | 1018.5 |
| 20260905122633 | 76 | 227 | 17.0 | 21.0 | 0.00 | 0.00 | 0.00 | 95 | 1018.5 |
| 20260905122446 | 76 | 225 | 17.0 | 21.0 | 0.00 | 0.00 | 0.00 | 95 | 1018.5 |
| 20260905121631 | 76 | 215 | 16.0 | 21.0 | 0.00 | 0.00 | 0.00 | 95 | 1018.5 |
| 20260905121131 | 76 | 182 | 16.0 | 21.0 | 0.00 | 0.00 | 0.00 | 95 | 1018.5 |
| 20260905120630 | 76 | 212 | 17.0 | 19.0 | 0.00 | 0.00 | 0.00 | 95 | 1018.6 |
| 20260905120129 | 76 | 218 | 16.0 | 19.0 | 0.00 | 0.00 | 0.00 | 96 | 1018.5 |
| 20260905115628 | 76 | 218 | 15.0 | 20.0 | 0.00 | 0.00 | 0.00 | 95 | 1018.5 |
| 20260905115123 | 76 | 181 | 13.0 | 20.0 | 0.00 | 0.00 | 0.00 | 95 | 1018.5 |
| 20260905114621 | 76 | 199 | 14.0 | 20.0 | 0.00 | 0.00 | 0.00 | 95 | 1018.3 |
| 20260905114212 | 76 | 209 | 16.0 | 20.0 | 0.00 | 0.00 | 0.00 | 95 | 1018.3 |
| 20260905113117 | 76 | 195 | 13.0 | 20.0 | 0.00 | 0.00 | 0.00 | 95 | 1018.2 |
| 20260905112618 | 76 | 226 | 14.0 | 20.0 | 0.00 | 0.00 | 0.00 | 95 | 1018.3 |
| 20260905112131 | 76 | 216 | 13.0 | 19.0 | 0.00 | 0.00 | 0.00 | 95 | 1018.2 |
| 20260905111617 | 76 | 174 | 15.0 | 19.0 | 0.00 | 0.00 | 0.00 | 95 | 1018.2 |
| 20260905111433 | 76 | 188 | 13.0 | 18.0 | 0.00 | 0.00 | 0.00 | 95 | 1018.1 |
| 20260905110613 | 76 | 178 | 10.0 | 17.0 | 0.00 | 0.00 | 0.00 | 95 | 1017.9 |
| 20260905110216 | 76 | 201 | 10.0 | 15.0 | 0.00 | 0.00 | 0.00 | 95 | 1017.8 |
| 20260905105114 | 76 | 220 | 10.0 | 16.0 | 0.00 | 0.00 | 0.00 | 96 | 1017.8 |
| 20260905104614 | 76 | 189 | 9.0 | 16.0 | 0.00 | 0.00 | 0.00 | 96 | 1017.8 |
| 20260905104111 | 76 | 212 | 10.0 | 17.0 | 0.00 | 0.00 | 0.00 | 96 | 1017.8 |
| 20260905103611 | 75 | 195 | 12.0 | 17.0 | 0.00 | 0.00 | 0.00 | 96 | 1017.8 |
| 20260905103109 | 75 | 208 | 13.0 | 17.0 | 0.00 | 0.00 | 0.00 | 96 | 1017.7 |
| 20260905102604 | 76 | 213 | 14.0 | 18.0 | 0.00 | 0.00 | 0.00 | 96 | 1017.7 |
| 20260905102425 | 75 | 202 | 15.0 | 18.0 | 0.00 | 0.00 | 0.00 | 96 | 1017.7 |
| 20260905101604 | 76 | 227 | 15.0 | 18.0 | 0.00 | 0.00 | 0.00 | 96 | 1017.7 |
| 20260905101103 | 76 | 222 | 14.0 | 20.0 | 0.00 | 0.00 | 0.00 | 96 | 1017.7 |
| 20260905100605 | 75 | 213 | 15.0 | 20.0 | 0.00 | 0.00 | 0.00 | 96 | 1017.7 |
| 20260905100201 | 75 | 243 | 15.0 | 20.0 | 0.00 | 0.00 | 0.00 | 96 | 1017.7 |
| 20260905095103 | 75 | 202 | 16.0 | 21.0 | 0.00 | 0.00 | 0.00 | 96 | 1017.6 |
| 20260905094604 | 75 | 223 | 16.0 | 21.0 | 0.00 | 0.00 | 0.00 | 96 | 1017.7 |
| 20260905094103 | 76 | 226 | 16.0 | 20.0 | 0.00 | 0.00 | 0.00 | 96 | 1017.7 |
| 20260905093559 | 75 | 244 | 16.0 | 20.0 | 0.00 | 0.00 | 0.00 | 96 | 1017.7 |
| 20260905093406 | 76 | 206 | 16.0 | 21.0 | 0.00 | 0.00 | 0.00 | 96 | 1017.7 |
| 20260905092855 | 76 | 203 | 15.0 | 21.0 | 0.00 | 0.00 | 0.00 | 96 | 1017.7 |
| 20260905092038 | 76 | 220 | 16.0 | 21.0 | 0.00 | 0.00 | 0.00 | 96 | 1017.7 |
| 20260905091631 | 76 | 218 | 17.0 | 22.0 | 0.00 | 0.00 | 0.00 | 95 | 1017.8 |
| 20260905090532 | 76 | 222 | 18.0 | 22.0 | 0.00 | 0.00 | 0.00 | 95 | 1017.7 |
| 20260905090032 | 76 | 225 | 17.0 | 22.0 | 0.00 | 0.00 | 0.00 | 96 | 1017.7 |
| 20260905085533 | 76 | 236 | 16.0 | 22.0 | 0.00 | 0.00 | 0.00 | 96 | 1017.7 |
| 20260905085028 | 76 | 218 | 16.0 | 21.0 | 0.00 | 0.00 | 0.00 | 96 | 1017.8 |
| 20260905084526 | 76 | 237 | 18.0 | 21.0 | 0.00 | 0.00 | 0.00 | 96 | 1017.7 |
| 20260905084025 | 76 | 219 | 17.0 | 22.0 | 0.00 | 0.00 | 0.00 | 96 | 1017.7 |
| 20260905083520 | 76 | 218 | 16.0 | 23.0 | 0.00 | 0.00 | 0.00 | 96 | 1017.6 |
| 20260905083021 | 75 | 218 | 18.0 | 24.0 | 0.00 | 0.00 | 0.00 | 96 | 1017.6 |
| 20260905082519 | 75 | 230 | 19.0 | 24.0 | 0.00 | 0.00 | 0.00 | 96 | 1017.5 |
| 20260905082017 | 75 | 222 | 18.0 | 24.0 | 0.00 | 0.00 | 0.00 | 96 | 1017.4 |
| 20260905081517 | 75 | 210 | 17.0 | 24.0 | 0.00 | 0.00 | 0.00 | 96 | 1017.3 |
| 20260905081015 | 75 | 226 | 18.0 | 24.0 | 0.00 | 0.00 | 0.00 | 96 | 1017.2 |
| 20260905080515 | 75 | 258 | 18.0 | 23.0 | 0.00 | 0.00 | 0.00 | 96 | 1017.1 |
| 20260905080014 | 75 | 226 | 17.0 | 22.0 | 0.00 | 0.00 | 0.00 | 96 | 1017.1 |
| 20260905075833 | 75 | 210 | 17.0 | 24.0 | 0.00 | 0.00 | 0.00 | 96 | 1017.1 |
| 20260905075011 | 75 | 202 | 18.0 | 24.0 | 0.00 | 0.00 | 0.00 | 96 | 1017.0 |
| 20260905074511 | 75 | 250 | 19.0 | 24.0 | 0.00 | 0.00 | 0.00 | 96 | 1016.9 |
| 20260905074012 | 75 | 222 | 16.0 | 23.0 | 0.00 | 0.00 | 0.00 | 96 | 1016.8 |
| 20260905073826 | 75 | 213 | 18.0 | 24.0 | 0.00 | 0.00 | 0.00 | 95 | 1016.8 |
| 20260905073006 | 75 | 229 | 16.0 | 24.0 | 0.00 | 0.00 | 0.00 | 95 | 1016.9 |
| 20260905072508 | 75 | 229 | 18.0 | 23.0 | 0.00 | 0.00 | 0.00 | 95 | 1016.8 |
| 20260905072005 | 75 | 223 | 17.0 | 22.0 | 0.00 | 0.00 | 0.00 | 96 | 1016.8 |
| 20260905071503 | 75 | 234 | 14.0 | 22.0 | 0.00 | 0.00 | 0.00 | 96 | 1016.7 |
| 20260905071004 | 75 | 218 | 16.0 | 21.0 | 0.00 | 0.00 | 0.00 | 96 | 1016.6 |
| 20260905070505 | 75 | 205 | 16.0 | 20.0 | 0.00 | 0.00 | 0.00 | 96 | 1016.6 |
| 20260905070003 | 75 | 202 | 17.0 | 22.0 | 0.00 | 0.00 | 0.00 | 95 | 1016.5 |
| 20260905065826 | 75 | 223 | 17.0 | 22.0 | 0.00 | 0.00 | 0.00 | 95 | 1016.3 |
| 20260905065003 | 75 | 226 | 18.0 | 22.0 | 0.00 | 0.00 | 0.00 | 95 | 1016.3 |
| 20260905064503 | 75 | 222 | 17.0 | 22.0 | 0.00 | 0.00 | 0.00 | 95 | 1016.2 |
| 20260905064003 | 75 | 222 | 19.0 | 22.0 | 0.00 | 0.00 | 0.00 | 95 | 1016.1 |
| 20260905063502 | 75 | 244 | 18.0 | 22.0 | 0.00 | 0.00 | 0.00 | 95 | 1016.2 |
| 20260905063118 | 75 | 240 | 15.0 | 23.0 | 0.00 | 0.00 | 0.00 | 95 | 1016.3 |
| 20260905061955 | 75 | 201 | 14.0 | 21.0 | 0.00 | 0.00 | 0.00 | 95 | 1016.3 |
| 20260905061451 | 75 | 210 | 15.0 | 22.0 | 0.00 | 0.00 | 0.00 | 95 | 1016.2 |
| 20260905060948 | 75 | 237 | 17.0 | 22.0 | 0.00 | 0.00 | 0.00 | 95 | 1016.3 |
| 20260905060447 | 75 | 212 | 17.0 | 21.0 | 0.00 | 0.00 | 0.00 | 95 | 1016.4 |
| 20260905060257 | 75 | 222 | 16.0 | 20.0 | 0.00 | 0.00 | 0.00 | 94 | 1016.4 |
| 20260905055444 | 75 | 218 | 16.0 | 21.0 | 0.00 | 0.00 | 0.00 | 94 | 1016.5 |
| 20260905054937 | 75 | 220 | 17.0 | 21.0 | 0.00 | 0.00 | 0.00 | 94 | 1016.5 |
| 20260905054434 | 75 | 206 | 17.0 | 21.0 | 0.00 | 0.00 | 0.00 | 94 | 1016.6 |
| 20260905053933 | 75 | 230 | 17.0 | 21.0 | 0.00 | 0.00 | 0.00 | 94 | 1016.6 |
| 20260905053432 | 75 | 218 | 16.0 | 21.0 | 0.00 | 0.00 | 0.00 | 94 | 1016.6 |
| 20260905052933 | 75 | 229 | 17.0 | 21.0 | 0.00 | 0.00 | 0.00 | 94 | 1016.6 |
| 20260905052431 | 75 | 227 | 16.0 | 20.0 | 0.00 | 0.00 | 0.00 | 94 | 1016.7 |
| 20260905051932 | 75 | 218 | 17.0 | 20.0 | 0.00 | 0.00 | 0.00 | 94 | 1016.7 |
| 20260905051431 | 75 | 222 | 15.0 | 20.0 | 0.00 | 0.00 | 0.00 | 94 | 1016.7 |
| 20260905050931 | 75 | 216 | 16.0 | 20.0 | 0.00 | 0.00 | 0.00 | 94 | 1016.7 |
| 20260905050433 | 75 | 263 | 14.0 | 19.0 | 0.00 | 0.00 | 0.00 | 94 | 1016.8 |
| 20260905045932 | 75 | 220 | 15.0 | 19.0 | 0.00 | 0.00 | 0.00 | 94 | 1016.7 |
| 20260905045434 | 75 | 225 | 13.0 | 19.0 | 0.00 | 0.00 | 0.00 | 94 | 1016.8 |
| 20260905044935 | 75 | 227 | 14.0 | 19.0 | 0.00 | 0.00 | 0.00 | 94 | 1016.7 |
| 20260905044754 | 75 | 223 | 12.0 | 17.0 | 0.00 | 0.00 | 0.00 | 94 | 1016.8 |
| 20260905043927 | 75 | 234 | 11.0 | 17.0 | 0.00 | 0.00 | 0.00 | 94 | 1016.8 |
| 20260905043426 | 75 | 242 | 10.0 | 16.0 | 0.00 | 0.00 | 0.00 | 94 | 1016.9 |
| 20260905042921 | 75 | 239 | 11.0 | 18.0 | 0.00 | 0.00 | 0.00 | 95 | 1016.9 |
| 20260905042419 | 75 | 250 | 11.0 | 18.0 | 0.00 | 0.00 | 0.00 | 95 | 1016.9 |
| 20260905041921 | 75 | 237 | 12.0 | 17.0 | 0.00 | 0.00 | 0.00 | 95 | 1016.9 |
| 20260905041420 | 75 | 234 | 12.0 | 17.0 | 0.00 | 0.00 | 0.00 | 94 | 1017.0 |
| 20260905040917 | 75 | 219 | 11.0 | 17.0 | 0.00 | 0.00 | 0.00 | 94 | 1017.0 |
| 20260905040415 | 75 | 246 | 12.0 | 17.0 | 0.00 | 0.00 | 0.00 | 94 | 1017.1 |
| 20260905035914 | 75 | 254 | 12.0 | 19.0 | 0.00 | 0.00 | 0.00 | 94 | 1017.1 |
| 20260905035734 | 75 | 239 | 13.0 | 19.0 | 0.00 | 0.00 | 0.00 | 94 | 1017.1 |
| 20260905034911 | 75 | 242 | 14.0 | 19.0 | 0.00 | 0.00 | 0.00 | 94 | 1017.0 |
| 20260905034407 | 75 | 242 | 13.0 | 18.0 | 0.00 | 0.00 | 0.00 | 95 | 1017.1 |
| 20260905033906 | 75 | 230 | 11.0 | 19.0 | 0.00 | 0.00 | 0.00 | 95 | 1017.0 |
| 20260905033407 | 75 | 247 | 12.0 | 19.0 | 0.00 | 0.00 | 0.00 | 95 | 1017.1 |
| 20260905032906 | 76 | 225 | 14.0 | 19.0 | 0.00 | 0.00 | 0.00 | 95 | 1017.1 |
| 20260905032719 | 76 | 209 | 14.0 | 20.0 | 0.00 | 0.00 | 0.00 | 95 | 1017.0 |
| 20260905031904 | 76 | 222 | 15.0 | 22.0 | 0.00 | 0.00 | 0.00 | 95 | 1017.0 |
| 20260905031403 | 76 | 181 | 17.0 | 23.0 | 0.00 | 0.00 | 0.00 | 95 | 1017.0 |
| 20260905030905 | 76 | 240 | 17.0 | 24.0 | 0.00 | 0.00 | 0.00 | 95 | 1017.1 |
| 20260905030404 | 76 | 216 | 17.0 | 24.0 | 0.00 | 0.00 | 0.00 | 95 | 1017.0 |
| 20260905025903 | 76 | 215 | 17.0 | 22.0 | 0.00 | 0.00 | 0.00 | 95 | 1017.0 |
| 20260905025402 | 75 | 225 | 17.0 | 22.0 | 0.00 | 0.00 | 0.00 | 96 | 1017.1 |
| 20260905024903 | 76 | 215 | 15.0 | 21.0 | 0.00 | 0.00 | 0.00 | 96 | 1017.1 |
| 20260905024406 | 76 | 185 | 16.0 | 21.0 | 0.00 | 0.00 | 0.00 | 96 | 1017.1 |
| 20260905023904 | 76 | 220 | 17.0 | 22.0 | 0.00 | 0.00 | 0.00 | 96 | 1017.2 |
| 20260905023403 | 76 | 256 | 17.0 | 22.0 | 0.00 | 0.00 | 0.00 | 96 | 1017.3 |
| 20260905022905 | 76 | 230 | 18.0 | 22.0 | 0.00 | 0.00 | 0.00 | 96 | 1017.4 |
| 20260905022401 | 76 | 209 | 17.0 | 21.0 | 0.00 | 0.00 | 0.00 | 96 | 1017.4 |
| 20260905021859 | 75 | 189 | 14.0 | 21.0 | 0.00 | 0.00 | 0.00 | 96 | 1017.4 |
| 20260905021358 | 75 | 205 | 13.0 | 21.0 | 0.00 | 0.00 | 0.00 | 96 | 1017.5 |
| 20260905020852 | 75 | 209 | 12.0 | 19.0 | 0.00 | 0.00 | 0.00 | 96 | 1017.6 |
| 20260905020351 | 75 | 196 | 12.0 | 19.0 | 0.00 | 0.00 | 0.00 | 96 | 1017.7 |
| 20260905015852 | 75 | 227 | 13.0 | 17.0 | 0.00 | 0.00 | 0.00 | 96 | 1017.8 |
| 20260905015345 | 75 | 203 | 12.0 | 20.0 | 0.00 | 0.00 | 0.00 | 96 | 1017.8 |
| 20260905014836 | 75 | 189 | 12.0 | 20.0 | 0.00 | 0.00 | 0.00 | 96 | 1017.8 |
| 20260905014650 | 75 | 223 | 11.0 | 19.0 | 0.00 | 0.00 | 0.00 | 96 | 1018.0 |
| 20260905013834 | 75 | 226 | 13.0 | 19.0 | 0.00 | 0.00 | 0.00 | 96 | 1017.9 |
| 20260905013334 | 75 | 230 | 13.0 | 19.0 | 0.00 | 0.00 | 0.00 | 96 | 1018.0 |
| 20260905012834 | 75 | 234 | 13.0 | 19.0 | 0.00 | 0.00 | 0.00 | 96 | 1017.9 |
| 20260905012629 | 75 | 242 | 10.0 | 16.0 | 0.00 | 0.00 | 0.00 | 96 | 1017.9 |
| 20260905011833 | 75 | 184 | 11.0 | 16.0 | 0.00 | 0.00 | 0.00 | 96 | 1017.8 |